This is the latest recevied weather packets stored in our database for station/object VK2BLR. If no packets are shown the sender has not sent any weather packets the latest 10 day(s).
| Time | Temp. | Humidity | Pressure | Rain* | Wind** | Luminosity | Snow |
|---|---|---|---|---|---|---|---|
| 1778047714 | 18.33° C | 51% | 1016.6 hPa | 0 mm | - | - | - |
| 1778046813 | 18.33° C | 51% | 1016.6 hPa | 0 mm | - | - | - |
| 1778045914 | 18.89° C | 51% | 1016.5 hPa | 0 mm | - | - | - |
| 1778045013 | 18.89° C | 53% | 1016.5 hPa | 0 mm | - | - | - |
| 1778044113 | 18.89° C | 53% | 1016.3 hPa | 0 mm | - | - | - |
| 1778043213 | 18.89° C | 52% | 1016.5 hPa | 0 mm | - | - | - |
| 1778042313 | 19.44° C | 52% | 1016.5 hPa | 0 mm | - | - | - |
| 1778041414 | 18.89° C | 51% | 1016.6 hPa | 0 mm | - | - | - |
| 1778040513 | 19.44° C | 51% | 1016.8 hPa | 0 mm | - | - | - |
| 1778039613 | 19.44° C | 51% | 1016.9 hPa | 0 mm | - | - | - |
| 1778038713 | 20° C | 51% | 1016.9 hPa | 0 mm | - | - | - |
| 1778037814 | 19.44° C | 51% | 1016.9 hPa | 0 mm | - | - | - |
| 1778036914 | 20° C | 50% | 1017.1 hPa | 0 mm | - | - | - |
| 1778036014 | 20° C | 49% | 1017.3 hPa | 0 mm | - | - | - |
| 1778035114 | 20° C | 50% | 1017.2 hPa | 0 mm | - | - | - |
| 1778034213 | 20° C | 50% | 1017.4 hPa | 0 mm | - | - | - |
| 1778033312 | 20° C | 49% | 1017.9 hPa | 0 mm | - | - | - |
| 1778032413 | 20.56° C | 48% | 1017.9 hPa | 0 mm | - | - | - |
| 1778031513 | 20.56° C | 51% | 1018.1 hPa | 0 mm | - | - | - |
| 1778030614 | 20° C | 52% | 1018.3 hPa | 0 mm | - | - | - |
| 1778029712 | 19.44° C | 51% | 1018.6 hPa | 0 mm | - | - | - |
| 1778028814 | 19.44° C | 53% | 1018.5 hPa | 0 mm | - | - | - |
| 1778027914 | 19.44° C | 53% | 1018.5 hPa | 0 mm | - | - | - |
| 1778027013 | 18.89° C | 54% | 1018.8 hPa | 0 mm | - | - | - |
| 1778026114 | 18.89° C | 54% | 1018.8 hPa | 0 mm | - | - | - |
* Rain latest hour (hover to see other rain measurements)
** Current wind speed in m/s (hover to see current wind gust speed)